sat.trackr.live / text

‹ back to catalog

STARLINK-30587

NORAD 58064 · 2023-158P

PAYLOAD ACTIVE UNKNOWN

§ Identity

Operator
Country
US
Launch date
2023-10-13
Launch site
AFETR
Launch vehicle
Mass (kg)
RCS (m²)

Purposes: comms

External: N2YO · Heavens-Above · Gunter

§ Orbital elements

Epoch: 2026-05-25T04:41:30.130368Z

Period
94.27 min
Inclination
43.0043°
Eccentricity
0.0001674
Mean motion
15.27586641 rev/d
Perigee alt
481.9 km
Apogee alt
484.2 km
Semi-major
6,861.2 km
B*
2.6672e-5
RAAN
314.7246°
Arg perigee
281.1195°
Mean anomaly
78.9469°
Rev number
14,527

§ Raw data

STARLINK-305871 58064U 23158P   26145.19548762  .00000472  00000+0  26672-4 0  99912 58064  43.0043 314.7246 0001674 281.1195  78.9469 15.27586641145278

JSON: /api/v1/satellites/58064 · /tle

For live sub-satellite position, see the globe view (requires WebGL).

§ Visibility from observer

Set your observer location to see the next 7 days of passes ≥ 10°. The values pass through the URL so the page stays shareable.

No JS? Fill the form by hand. The geolocation button needs JavaScript.